TimeMST,TemperatureF,Dew PointF,Humidity,Sea Level PressureIn,VisibilityMPH,Wind Direction,Wind SpeedMPH,Gust SpeedMPH,PrecipitationIn,Events,Conditions,WindDirDegrees,DateUTC
12:53 AM,24.1,18.0,77,30.15,10.0,SSE,5.8,-,N/A,,Partly Cloudy,160,2013-02-18 07:53:00
1:53 AM,24.1,16.0,71,30.15,10.0,SE,8.1,-,N/A,,Partly Cloudy,140,2013-02-18 08:53:00
2:53 AM,23.0,17.1,78,30.16,10.0,SE,8.1,-,N/A,,Clear,140,2013-02-18 09:53:00
3:53 AM,23.0,17.1,78,30.15,10.0,ESE,8.1,-,N/A,,Partly Cloudy,120,2013-02-18 10:53:00
4:53 AM,23.0,15.8,74,30.11,10.0,SE,8.1,-,N/A,,Partly Cloudy,140,2013-02-18 11:53:00
5:53 AM,23.0,15.1,72,30.17,10.0,SSE,6.9,-,N/A,,Clear,160,2013-02-18 12:53:00
6:53 AM,21.9,15.1,75,30.18,10.0,SSE,8.1,-,N/A,,Partly Cloudy,150,2013-02-18 13:53:00
7:53 AM,24.1,16.0,71,30.18,10.0,SSE,9.2,-,N/A,,Scattered Clouds,150,2013-02-18 14:53:00
8:53 AM,27.0,17.1,66,30.19,10.0,SSE,11.5,-,N/A,,Scattered Clouds,150,2013-02-18 15:53:00
9:53 AM,30.0,18.0,61,30.19,10.0,SSE,9.2,-,N/A,,Scattered Clouds,150,2013-02-18 16:53:00
10:53 AM,33.1,19.0,56,30.19,10.0,SE,9.2,-,N/A,,Scattered Clouds,140,2013-02-18 17:53:00
11:53 AM,34.0,18.0,52,30.19,10.0,SSE,11.5,-,N/A,,Mostly Cloudy,160,2013-02-18 18:53:00
12:53 PM,36.0,17.1,46,30.17,10.0,South,12.7,-,N/A,,Mostly Cloudy,170,2013-02-18 19:53:00
1:53 PM,37.0,16.0,42,30.14,10.0,South,12.7,-,N/A,,Mostly Cloudy,170,2013-02-18 20:53:00
2:53 PM,37.9,14.0,38,30.12,10.0,South,10.4,-,N/A,,Mostly Cloudy,190,2013-02-18 21:53:00
3:53 PM,37.9,14.0,38,30.09,10.0,ESE,5.8,-,N/A,,Mostly Cloudy,120,2013-02-18 22:53:00
4:53 PM,37.9,14.0,38,30.06,10.0,SSW,8.1,-,N/A,,Mostly Cloudy,210,2013-02-18 23:53:00
5:53 PM,37.0,10.9,34,30.04,10.0,South,3.5,-,N/A,,Mostly Cloudy,180,2013-02-19 00:53:00
6:53 PM,32.0,21.0,64,30.04,10.0,Calm,Calm,-,N/A,,Mostly Cloudy,0,2013-02-19 01:53:00
7:53 PM,26.1,21.0,81,30.05,10.0,North,4.6,-,N/A,,Mostly Cloudy,360,2013-02-19 02:53:00
8:53 PM,26.1,21.0,81,30.02,10.0,Calm,Calm,-,N/A,,Scattered Clouds,0,2013-02-19 03:53:00
9:53 PM,25.0,21.0,85,30.00,10.0,West,3.5,-,N/A,,Scattered Clouds,270,2013-02-19 04:53:00
10:53 PM,23.0,19.0,85,29.99,10.0,Calm,Calm,-,N/A,,Mostly Cloudy,0,2013-02-19 05:53:00
11:53 PM,25.0,19.9,81,29.95,10.0,NNE,3.5,-,N/A,,Scattered Clouds,20,2013-02-19 06:53:00